When you browse on this site, cookies collect data to enhance your experience and personalize the content and advertising you see.
Visit our Privacy Policy to learn more. By continuing to use the site, you agree to this use of cookies and data.
  • In Österreich
  • Länderverzeichnis
  • Für 7 Tage
  • Wassertemperatur
  • Satellitenkarten
  • Wetterkarte
  • News
  • Widgets
  • user-avatar
    Anmelden

    Stündliche Wetter Victoria

    Heute, 21 März, Donnerstag

    Zeit Temperatur Niederschläge Wind Luftdruck Luftfeuchtigkeit
    00:00 +21°C° 0 mm 3 m/S 748 mmHg 82%
    01:00 +20°C° 0 mm 3 m/S 748 mmHg 86%
    02:00 +20°C° 0 mm 3 m/S 748 mmHg 87%
    03:00 +19°C° 0 mm 2 m/S 748 mmHg 88%
    04:00 +19°C° 0 mm 2 m/S 748 mmHg 89%
    05:00 +19°C° 0 mm 2 m/S 748 mmHg 87%
    06:00 +19°C° 0 mm 2 m/S 748 mmHg 86%
    07:00 +19°C° 0 mm 2 m/S 749 mmHg 85%
    08:00 +23°C° 0 mm 2 m/S 749 mmHg 74%
    09:00 +25°C° 0 mm 3 m/S 749 mmHg 63%
    10:00 +28°C° 0 mm 2 m/S 750 mmHg 53%
    11:00 +30°C° 0 mm 2 m/S 749 mmHg 47%
    12:00 +31°C° 0 mm 1 m/S 749 mmHg 40%
    13:00 +33°C° 0 mm 1 m/S 748 mmHg 34%
    14:00 +33°C° 0 mm 1 m/S 748 mmHg 32%
    15:00 +34°C° 0 mm 1 m/S 748 mmHg 30%
    16:00 +33°C° 0 mm 1 m/S 747 mmHg 29%
    17:00 +32°C° 0 mm 2 m/S 748 mmHg 33%
    18:00 +30°C° 0 mm 2 m/S 748 mmHg 37%
    19:00 +28°C° 0 mm 3 m/S 748 mmHg 41%
    20:00 +27°C° 0 mm 3 m/S 748 mmHg 48%
    21:00 +26°C° 0 mm 4 m/S 748 mmHg 56%
    22:00 +25°C° 0 mm 4 m/S 749 mmHg 63%
    23:00 +23°C° 0.2 mm 4 m/S 749 mmHg 66%

    Morgen, 22 März, Freitag

    Zeit Temperatur Niederschläge Wind Luftdruck Luftfeuchtigkeit
    00:00 +22°C° 0.2 mm 3 m/S 749 mmHg 69%
    01:00 +22°C° 0.2 mm 3 m/S 749 mmHg 72%
    02:00 +21°C° 0.8 mm 3 m/S 749 mmHg 72%
    03:00 +21°C° 0.8 mm 3 m/S 749 mmHg 72%
    04:00 +21°C° 0.8 mm 3 m/S 749 mmHg 73%
    05:00 +21°C° 0.3 mm 3 m/S 749 mmHg 73%
    06:00 +21°C° 0.3 mm 4 m/S 749 mmHg 74%
    07:00 +21°C° 0.3 mm 4 m/S 749 mmHg 74%
    08:00 +23°C° 0 mm 5 m/S 749 mmHg 69%
    09:00 +25°C° 0 mm 5 m/S 749 mmHg 64%
    10:00 +27°C° 0 mm 6 m/S 750 mmHg 58%
    11:00 +28°C° 0 mm 5 m/S 749 mmHg 52%
    12:00 +30°C° 0 mm 4 m/S 749 mmHg 46%
    13:00 +33°C° 0 mm 4 m/S 748 mmHg 40%
    14:00 +33°C° 0 mm 3 m/S 748 mmHg 37%
    15:00 +34°C° 0 mm 3 m/S 747 mmHg 34%
    16:00 +34°C° 0 mm 2 m/S 746 mmHg 31%
    17:00 +32°C° 0 mm 2 m/S 746 mmHg 36%
    18:00 +30°C° 0 mm 3 m/S 746 mmHg 41%
    19:00 +28°C° 0 mm 3 m/S 746 mmHg 45%
    20:00 +28°C° 0 mm 3 m/S 747 mmHg 48%
    21:00 +27°C° 0 mm 4 m/S 747 mmHg 51%
    22:00 +26°C° 0 mm 4 m/S 747 mmHg 54%
    23:00 +26°C° 0 mm 5 m/S 747 mmHg 56%

    übermorgen, 23 März, Samstag

    Zeit Temperatur Niederschläge Wind Luftdruck Luftfeuchtigkeit
    00:00 +24°C° 0 mm 6 m/S 746 mmHg 57%
    01:00 +23°C° 0 mm 6 m/S 746 mmHg 59%
    02:00 +23°C° 0 mm 6 m/S 746 mmHg 60%
    03:00 +23°C° 0 mm 6 m/S 745 mmHg 61%
    04:00 +23°C° 0 mm 7 m/S 745 mmHg 62%
    05:00 +22°C° 0.2 mm 7 m/S 745 mmHg 63%
    06:00 +22°C° 0.2 mm 7 m/S 745 mmHg 65%
    07:00 +22°C° 0.2 mm 7 m/S 745 mmHg 66%
    08:00 +23°C° 0 mm 7 m/S 745 mmHg 61%
    09:00 +26°C° 0 mm 8 m/S 744 mmHg 55%
    10:00 +27°C° 0 mm 8 m/S 744 mmHg 50%
    11:00 +31°C° 0 mm 8 m/S 744 mmHg 40%
    12:00 +34°C° 0 mm 8 m/S 743 mmHg 30%
    13:00 +39°C° 0 mm 8 m/S 743 mmHg 20%
    14:00 +38°C° 0 mm 7 m/S 742 mmHg 21%
    15:00 +38°C° 0 mm 7 m/S 742 mmHg 23%
    16:00 +38°C° 0 mm 7 m/S 741 mmHg 24%
    17:00 +35°C° 0 mm 6 m/S 742 mmHg 27%
    18:00 +33°C° 0 mm 5 m/S 742 mmHg 31%
    19:00 +30°C° 0 mm 4 m/S 743 mmHg 35%
    20:00 +29°C° 0 mm 4 m/S 744 mmHg 36%
    21:00 +28°C° 0 mm 4 m/S 745 mmHg 38%
    22:00 +27°C° 0 mm 3 m/S 745 mmHg 39%
    23:00 +26°C° 0 mm 3 m/S 745 mmHg 48%

    24 März, Sonntag

    Zeit Temperatur Niederschläge Wind Luftdruck Luftfeuchtigkeit
    00:00 +25°C° 0 mm 3 m/S 745 mmHg 57%
    01:00 +22°C° 0 mm 3 m/S 745 mmHg 67%
    02:00 +22°C° 0 mm 3 m/S 746 mmHg 68%
    03:00 +22°C° 0 mm 3 m/S 746 mmHg 69%
    04:00 +21°C° 0 mm 3 m/S 746 mmHg 70%
    05:00 +21°C° 0.3 mm 2 m/S 746 mmHg 73%
    06:00 +22°C° 0.3 mm 1 m/S 747 mmHg 76%
    07:00 +21°C° 0.3 mm 1 m/S 747 mmHg 79%
    08:00 +20°C° 1.3 mm 2 m/S 747 mmHg 81%
    09:00 +20°C° 1.3 mm 3 m/S 747 mmHg 82%
    10:00 +20°C° 1.3 mm 4 m/S 747 mmHg 83%
    11:00 +21°C° 0.4 mm 4 m/S 747 mmHg 80%
    12:00 +21°C° 0.4 mm 5 m/S 746 mmHg 77%
    13:00 +22°C° 0.4 mm 5 m/S 746 mmHg 73%
    14:00 +22°C° 0.4 mm 5 m/S 746 mmHg 77%
    15:00 +21°C° 0.4 mm 5 m/S 745 mmHg 80%
    16:00 +20°C° 0.4 mm 5 m/S 745 mmHg 84%
    17:00 +20°C° 0.1 mm 4 m/S 745 mmHg 85%
    18:00 +20°C° 0.1 mm 4 m/S 745 mmHg 86%
    19:00 +20°C° 0.1 mm 4 m/S 744 mmHg 87%
    20:00 +20°C° 0 mm 4 m/S 744 mmHg 85%
    21:00 +20°C° 0 mm 5 m/S 744 mmHg 84%
    22:00 +20°C° 0 mm 6 m/S 744 mmHg 82%
    23:00 +20°C° 0.2 mm 5 m/S 743 mmHg 82%

    25 März, Montag

    Zeit Temperatur Niederschläge Wind Luftdruck Luftfeuchtigkeit
    00:00 +20°C° 0.2 mm 5 m/S 743 mmHg 82%
    01:00 +20°C° 0.2 mm 4 m/S 742 mmHg 82%
    02:00 +20°C° 0.1 mm 4 m/S 742 mmHg 82%
    03:00 +20°C° 0.1 mm 4 m/S 741 mmHg 81%
    04:00 +20°C° 0.1 mm 4 m/S 741 mmHg 81%
    05:00 +20°C° 0.1 mm 5 m/S 742 mmHg 80%
    06:00 +20°C° 0.1 mm 5 m/S 742 mmHg 78%
    07:00 +20°C° 0.1 mm 6 m/S 743 mmHg 76%
    08:00 +20°C° 0 mm 6 m/S 743 mmHg 71%
    09:00 +18°C° 0 mm 7 m/S 744 mmHg 65%
    10:00 +18°C° 0 mm 8 m/S 745 mmHg 60%
    11:00 +18°C° 0 mm 8 m/S 745 mmHg 53%
    12:00 +18°C° 0 mm 8 m/S 745 mmHg 46%
    13:00 +20°C° 0 mm 8 m/S 746 mmHg 40%
    14:00 +20°C° 0 mm 8 m/S 746 mmHg 36%
    15:00 +20°C° 0 mm 7 m/S 746 mmHg 33%
    16:00 +20°C° 0 mm 7 m/S 746 mmHg 29%
    17:00 +19°C° 0 mm 6 m/S 747 mmHg 31%
    18:00 +17°C° 0 mm 5 m/S 748 mmHg 34%
    19:00 +16°C° 0 mm 3 m/S 749 mmHg 36%
    20:00 +14°C° 0 mm 3 m/S 749 mmHg 39%
    21:00 +14°C° 0 mm 3 m/S 750 mmHg 41%
    22:00 +13°C° 0 mm 3 m/S 751 mmHg 44%
    23:00 +12°C° 0 mm 3 m/S 751 mmHg 47%

    26 März, Dienstag

    Zeit Temperatur Niederschläge Wind Luftdruck Luftfeuchtigkeit
    00:00 +12°C° 0 mm 3 m/S 751 mmHg 50%
    01:00 +12°C° 0 mm 3 m/S 751 mmHg 53%
    02:00 +11°C° 0 mm 3 m/S 752 mmHg 57%
    03:00 +11°C° 0 mm 3 m/S 752 mmHg 61%
    04:00 +10°C° 0 mm 3 m/S 752 mmHg 65%
    05:00 +10°C° 0 mm 3 m/S 752 mmHg 68%
    06:00 +10°C° 0 mm 2 m/S 753 mmHg 71%
    07:00 +9°C° 0 mm 2 m/S 754 mmHg 74%
    08:00 +11°C° 0 mm 3 m/S 754 mmHg 65%
    09:00 +13°C° 0 mm 4 m/S 754 mmHg 57%
    10:00 +16°C° 0 mm 5 m/S 754 mmHg 49%
    11:00 +17°C° 0 mm 5 m/S 754 mmHg 45%
    12:00 +19°C° 0 mm 5 m/S 754 mmHg 42%
    13:00 +21°C° 0 mm 5 m/S 754 mmHg 38%
    14:00 +21°C° 0 mm 5 m/S 753 mmHg 38%
    15:00 +21°C° 0 mm 6 m/S 753 mmHg 38%
    16:00 +21°C° 0 mm 6 m/S 753 mmHg 37%
    17:00 +20°C° 0 mm 6 m/S 754 mmHg 42%
    18:00 +17°C° 0 mm 5 m/S 754 mmHg 46%
    19:00 +17°C° 0 mm 4 m/S 755 mmHg 50%
    20:00 +15°C° 0 mm 4 m/S 755 mmHg 54%
    21:00 +14°C° 0 mm 4 m/S 756 mmHg 58%
    22:00 +14°C° 0 mm 4 m/S 756 mmHg 62%
    23:00 +13°C° 0 mm 4 m/S 756 mmHg 65%
    Mehr zeigen